www.pogodaiklimat.ru

Погода и климат >> Архив погоды >> Украина >> Житомир


ПОГОДА в Житомире

АРХИВ ПОГОДЫ в Житомире

Время (UTC), дата Ветер
(напр.,м/с)
 
Видим.   Явления Облачность Т
(С)
Тd
(С)
f
(%)
Тe
(С)
Тes
(С)
Комфортность P
(гПа)
Po
(гПа)
Тmin
(С)
Tmax
(С)
R
(мм)
R24
(мм)
S
(см)
15 15.09 З 2 10 км 10/0
[Ci]
+19.8 +2.4 31 +21 +21 комфорт 1019.3 993.7
18 15.09 З 1 10 км 8/0
[Ci fib]
+16.1 +4.2 45 +17 +17 тепло 1017.6 991.7 +20.5
21 15.09 З 1 10 км 3/0
[Ci fib]
+13.6 +8.4 71 +14 +14 тепло 1016.3 990.3
00 16.09 З 2 10 км 8/0
[Cc]
+12.8 +6.6 66 +12 +12 по сезону 1015.2 989.1
03 16.09 З 3 10 км 8/0
[Ci fib]
+12.9 +5.5 61 +12 +12 по сезону 1013.5 987.5
06 16.09 З 2 10 км 6/3 1000 м
[Sc Ac trans Cc]
+14.4 +7.1 62 +14 +15 тепло 1013.3 987.4 +11.3
09 16.09 З 3 10 км 8/4 1000 м
[Sc Ac trans]
+20.0 +6.1 40 +21 +24 комфорт 1011.9 986.5
12 16.09 З 2 10 км 8/0
[Ac trans Cc]
+20.7 +6.9 41 +22 +27 комфорт 1010.6 985.3
15 16.09 З 2 10 км 9/3 1000 м
[Sc Ac trans Ci fib]
+20.2 +8.0 45 +22 +22 комфорт 1009.8 984.5
18 16.09 З 2 10 км 10/6 930 м
[Sc Ac und]
+17.7 +5.7 45 +18 +18 тепло 1010.5 985.0 +22.2
21 16.09 З 1 10 км 10/5 930 м
[Sc Ac und]
+16.1 +5.6 50 +17 +17 тепло 1010.5 984.8
00 17.09 СЗ 1 10 км 5/3 600 м
[Sc Ac trans]
+13.6 +6.4 62 +14 +14 тепло 1010.6 984.7
03 17.09 З 1 10 км 10/6 840 м
[Sc Ac und]
+12.1 +5.7 65 +12 +12 по сезону 1010.6 984.6
06 17.09 З 3 10 км 3/0
[Ci fib]
+12.0 +5.1 63 +11 +12 по сезону 1011.3 985.2 +9.9
09 17.09 СЗ 3 10 км 8/8 1080 м
[Cu hum]
+15.8 +3.8 45 +15 +17 по сезону 1010.2 984.5
12 17.09 З 3 10 км 1/1 1000 м
[Cu hum]
+18.0 +1.7 33 +18 +23 по сезону 1008.5 983.0
15 17.09 З 2 10 км 4/1 1000 м
[Cu hum Cc]
+17.4 +0.7 32 +18 +18 тепло 1007.0 981.5
18 17.09 З 1 10 км 9/0
[Ac trans]
+14.0 +2.9 47 +15 +15 тепло 1007.0 981.2 +19.1
21 17.09 З 2 10 км 8/3 600 м
[Sc Ac trans]
+13.6 +2.9 48 +13 +13 по сезону 1005.5 979.7
00 18.09 З 2 10 км 10/0
[Ac und]
+11.0 +4.4 64 +10 +10 по сезону 1004.0 978.0
03 18.09 З 3 10 км в посл. час ливневой дождь 9/6 700 м
[Cb calv Ac trans]
+9.0 +5.5 79 +7 +7 прохладно 1004.4 978.2
06 18.09 З 4 10 км {ливн. осадки} 10/10 660 м
[Cb calv]
+8.9 +2.0 62 +6 +6 прохладно 1005.8 979.6 +7.6 0.4
09 18.09 З 4 10 км в посл. час ливневой дождь 5/5 660 м
[Cb calv]
+9.0 +5.0 76 +6 +9 очень
холодно
1007.5 981.3
12 18.09 З 4 4000 м слаб. ливневой дождь 9/8 630 м
[Cb calv Ac trans]
+10.2 +6.4 77 +8 +8 очень
холодно
1008.3 982.2
15 18.09 З 3 10 км {ливн. осадки} 6/6 660 м
[Cb calv]
+9.8 +6.4 79 +8 +8 холодно 1010.7 984.5
18 18.09 З 4 10 км {ливн. осадки} 6/3 600 м
[Cb cap Ac trans]
+8.5 +5.7 83 +5 +5 очень
холодно
1014.3 987.8 +12.6 2
21 18.09 З 3 10 км 9/5 700 м
[Sc Ac trans]
+8.6 +6.2 85 +6 +6 холодно 1015.9 989.4
00 19.09 СЗ 1 10 км 3/0
[Ac trans]
+7.0 +4.7 85 +6 +6 прохладно 1017.1 990.4
03 19.09 З 1 4000 м дымка ясно +5.4 +4.0 91 +4 +4 холодно 1017.5 990.7
06 19.09 З 2 10 км 3/3 300 м
[St]
+7.6 +4.4 80 +6 +7 прохладно 1018.4 991.7 +4.7
09 19.09 З 3 10 км 9/9 700 м
[Cb calv]
+11.5 +4.5 62 +10 +11 прохладно 1018.7 992.4
12 19.09 З 2 10 км 8/5 700 м
[Cb calv Ac trans]
+10.6 +7.3 80 +9 +11 очень
холодно
1018.9 992.5
15 19.09 З 1 10 км в посл. час ливневой дождь 8/5 660 м
[Cb calv Ac trans]
+10.4 +5.6 72 +10 +10 холодно 1019.2 992.8
18 19.09 СЗ 1 10 км {ливн. осадки} 6/0
[Ac trans]
+8.0 +5.1 82 +7 +7 холодно 1020.1 993.4 +13.6 2
21 19.09 штиль 0 10 км 3/0
[Ac trans]
+6.4 +4.1 85 +5 +5 холодно 1020.3 993.5
00 20.09 З 1 10 км ясно +5.2 +3.5 89 +4 +4 холодно 1020.2 993.3
03 20.09 З 1 4000 м дымка 10/6 360 м
[St Ac und]
+5.6 +4.9 95 +4 +4 холодно 1019.9 993.0
06 20.09 З 1 10 км 10/8 270 м
[Sc Ac und]
+6.6 +4.8 88 +6 +6 прохладно 1019.9 993.1 +4.4
09 20.09 З 2 10 км 8/6 700 м
[Cb calv Ac trans]
+10.4 +3.6 63 +9 +12 прохладно 1019.5 993.1
12 20.09 СЗ 3 10 км {ливн. осадки} 9/8 750 м
[Cb calv Ac trans]
+9.0 +2.4 63 +7 +8 очень
холодно
1020.0 993.4
15 20.09 З 2 10 км 6/4 600 м
[Cu Sc Ac trans]
+10.8 0.0 47 +10 +10 прохладно 1019.2 992.8
18 20.09 З 1 10 км ясно +7.0 +1.6 68 +6 +6 холодно 1021.4 994.6 +12.1 0.0
21 20.09 С 1 10 км ясно +4.4 +2.2 86 +3 +3 очень
холодно
1022.4 995.3
00 21.09 С 1 10 км 3/0
[Ci fib]
+3.1 +1.3 88 +2 +2 очень
холодно
1023.2 996.0
03 21.09 С 1 10 км дымка 3/0
[Ci fib]
+1.8 +0.7 92 -0 -0 очень
холодно
1023.9 996.5
06 21.09 З 1 10 км 10/0
[Cc]
+4.0 +1.2 82 +3 +4 очень
холодно
1024.5 997.3 +1.1
09 21.09 З 2 10 км 9/0
[Ac trans Cc]
+11.7 -0.3 44 +11 +16 прохладно 1023.4 997.0
12 21.09 З 1 10 км 10/4 600 м
[Cb cap Ac As Cc]
+13.2 +1.3 44 +14 +16 прохладно 1021.5 995.3
15 21.09 З 3 10 км слаб. ливневой дождь 10/10 400 м
[Cb cap]
+10.8 +6.1 73 +9 +9 холодно 1020.2 993.8
18 21.09 З 2 4000 м слаб. ливневой дождь 10/10 240 м
[Cb cap]
+10.4 +8.8 90 +9 +9 прохладно 1019.6 993.2 +13.6 0.4
21 21.09 З 2 4000 м в посл. час дождь {ливн. осадки} 10/10 400 м
[St]
+11.2 +9.8 91 +10 +10 по сезону 1018.6 992.3
00 22.09 З 3 10 км {ливн. осадки, дождь} 9/8 750 м
[Sc Ac trans]
+12.0 +8.8 81 +10 +10 по сезону 1017.3 991.1
03 22.09 З 3 10 км 10/4 600 м
[Sc Ac und]
+12.5 +8.1 75 +11 +11 по сезону 1016.7 990.6
06 22.09 СЗ 3 10 км 10/10 630 м
[Sc]
+12.7 +8.5 76 +11 +11 по сезону 1017.2 991.1 +10.1 0.0
09 22.09 З 2 10 км 10/10 570 м
[Sc]
+13.4 +8.6 73 +13 +13 по сезону 1017.5 991.4

 

Местоположение метеостанции Житомир (Житомирская область, Украина): широта 50.23 долгота 28.73 высота над уровнем моря 224 м.

В архиве по умолчанию представлена погода в Житомире за последнюю неделю. Архивные данные за месяц целиком и за предыдущие месяцы, начиная с января 2011 года, Вы можете получить, выбрав интересующий диапазон дат из раскрывающегося списка и нажав кнопку "Ввод!".


*Определитесь, кто Вы:
робот инопланетянин человек

Внимание! Время в таблицах - всемирное. Для получения местного времени необходимо прибавить поправку, которая равна 2 ч.

Смотрите также архив погоды в соседних городах и на ближайших метеорологических станциях:

Погода в Белополе (Винницкая область, Украина) (46 км)
Погода в Тетереве (Киевская область, Украина) (80 км)
Погода в Коростени (Житомирская область, Украина) (80 км)
Погода в Фастове (Киевская область, Украина) (86 км)
Погода в Новограде-Волынском (Житомирская область, Украина) (88 км)
Погода в Виннице (Винницкая область, Украина) (112 км)
Погода в Белой Церкви (Киевская область, Украина) (113 км)
Погода в Шепетовке (Хмельницкая область, Украина) (121 км)
Погода в Овруче (Житомирская область, Украина) (121 км)
Погода в Хмельнике (Винницкая область, Украина) (130 км)

Пояснения к столбцам:

Ветер - указаны скорость ветра в м/с - средняя за 10 мин, порывы в срок и между сроками (в фигурных скобках) и направление, откуда дует ветер: С - северный, СВ - северо-восточный, В - восточный, ЮВ - юго-восточный, Ю - южный, ЮЗ - юго-западный, З - западный, СЗ - северо-западный.
Видимость - горизонтальная дальность видимости в метрах или километрах. При видимости от 1 до 10 км при отсутствии осадков обычно наблюдается дымка, при ухудшении видимости до 1 км и менее - туман. В сухую погоду видимость может ухудшаться дымом, пылью или мглою.
Явления - указаны атмосферные явления, наблюдавшиеся в срок или в последний час перед сроком; фигурными скобками обозначены явления, наблюдавшиеся между сроками (за 1-3 часа до срока); квадратными скобками обозначены град или гололедные отложения с указанием их диаметра в мм.
Облачность - указаны через наклонную черту общая и нижняя облачность в баллах и высота нижней границы облаков в метрах; квадратными скобками обозначены формы облаков: Ci - перистые, Cs - перисто-слоистые, Cc - перисто-кучевые, Ac - высококучевые, As - высокослоистые, Sc - слоисто-кучевые, Ns - слоисто-дождевые, Cu - кучевые, Cb - кучево-дождевые. Подробнее классификацию облаков см. в Атласе облаков (PDF).
T - Температура воздуха - температура, измеренная на высоте 2 м над землей.
Td - Температура точки росы - температура, при понижении до которой содержащийся в воздухе водяной пар достигнет насыщения.
f - Относительная влажность воздуха - влажноcть воздуха, измеренная на высоте 2 м над землей.
Te - Эффективная температура - температура, которую ощущает одетый по сезону человек в тени. Характеристика душности погоды. При расчете учитывается влияние влажности воздуха и скорости ветра на теплоощущения человека.
Tes - Эффективная температура на солнце - температура, которую ощущает человек, с поправкой на солнечный нагрев. Характеристика знойности погоды. Зависит от высоты солнца над горизонтом, облачности и скорости ветра. Ночью, в пасмурную погоду, а также при ветре 12 м/с и более поправка равна нулю.
P - Атмосферное давление - приведенное к уровню моря атмосферное давление.
Po - Атмосферное давление - измеренное на уровне метеостанции атмосферное давление.
Tmin - Минимальная температура - минимум температуры воздуха на высоте 2 м над землей.
Tmax - Максимальная температура - максимум температуры воздуха на высоте 2 м над землей.
R - Количество осадков - Количество выпавших осадков за период времени, мм. При наведении курсора мыши на число - период времени, за который выпало указанное количество осадков.
R24 - Количество осадков - Количество выпавших осадков за 24 часа, мм.
S - Снежный покров - Высота снежного покрова, см. При наведении курсора мыши на число - состояние снежного покрова и степень покрытия местности в баллах.